Regional Weather Roundup
Issued by NWS

Home | Current Version | Previous Version | Text Only | Print | Product List | Glossary Off
Versions: 1 2 3 4 5 6 7 8 9 10 11 12 13 14 15 16 17 18 19 20 21 22 23 24 25 26 27 28 29 30 31 32 33 34 35 36 37 38 39 40 41 42 43 44 45 46 47 48 49 50

000
ASUS45 KABQ 270701
RWRNM
WEATHER ROUNDUP FOR NEW MEXICO
NATIONAL WEATHER SERVICE ALBUQUERQUE NM
1200 AM MST THU NOV 27 2014

NOTE: "FAIR" MEANS FEW OR NO CLOUDS BELOW 12,000 FEET AGL WITH NO
       SIGNIFICANT WEATHER OR OBSTRUCTIONS TO VISION.

      THIS PRODUCT IS RELEASED AS TWO VERSIONS.  ONE VERSION NEAR
      THE TOP OF THE HOUR CONTAINING PRELIMINARY DATA FROM ALBUQUERQUE
      AND OTHER STATIONS.  A FINAL VERSION WITH ADDITIONAL DATA IS
      ISSUED ABOUT 10 MINUTES AFTER THE HOUR.

NMZ501-503-504-510>518-270800-
NORTHWEST PLATEAU/NORTHCENTRAL MOUNTAINS

CITY           SKY/WX    TMP DP  RH WIND       PRES   REMARKS
FARMINGTON     CLEAR     33  19  56 NE7       30.45R WCI  27
SANTA FE       PTCLDY    39  21  48 N10       30.43R WCI  32
TAOS           PTCLDY    25  19  80 N6        30.47R WCI  18

$$
NMZ402-403-502-505>509-270800-
WESTCENTRAL MOUNTAINS/SOUTHWEST MOUNTAINS

CITY           SKY/WX    TMP DP  RH WIND       PRES   REMARKS
GALLUP         CLEAR     22   8  55 E5        30.49S WCI  16
SILVER CITY    CLEAR     36  18  48 CALM      30.40R

$$
NMZ407-409-411-412-270800-
SOUTHERN DESERTS

CITY           SKY/WX    TMP DP  RH WIND       PRES   REMARKS
DEMING         CLEAR     35  16  45 N3        30.36R
HOLLOMAN AFB   CLEAR     36  19  49 CALM      30.35R
T OR C         CLEAR     48  20  32 NW8       30.38R

$$
NMZ519>523-270800-
CENTRAL VALLEYS/CENTRAL HIGHLANDS

CITY           SKY/WX    TMP DP  RH WIND       PRES   REMARKS
ALBUQUERQUE    PTCLDY    38  21  50 NE3       30.43R
DOUBLE EAGLE   CLEAR     32  18  56 S5        30.45S WCI  28
CLINES CORNERS PTCLDY    33  20  58 NW13      30.40R WCI  24
BELEN          FAIR      33  19  56 W7        30.43S WCI  27
SOCORRO        NOT AVBL

$$
NMZ524>526-539-540-270800-
SOUTHCENTRAL MOUNTAINS

CITY           SKY/WX    TMP DP  RH WIND       PRES   REMARKS
RUIDOSO        CLEAR     43  19  39 W9        30.43F

$$
NMZ527>531-270800-
NORTHEAST HIGHLANDS/NORTHEAST PLAINS

CITY           SKY/WX    TMP DP  RH WIND       PRES   REMARKS
LAS VEGAS      CLEAR     35  20  54 NW8       30.39S WCI  29
RATON          CLEAR     30  21  69 CALM      30.36R
CLAYTON        CLEAR     30  22  72 SW12      30.36F WCI  20

$$
NMZ532>537-270800-
EASTCENTRAL PLAINS

CITY           SKY/WX    TMP DP  RH WIND       PRES   REMARKS
TUCUMCARI      CLEAR     29  23  78 N3        30.37S
CANNON AFB     CLEAR     32  23  69 SE7       30.39S WCI  26
CLOVIS AIRPORT CLEAR     32  21  64 SE8       30.39S WCI  25

$$
NMZ028-029-538-270800-
SOUTHEAST PLAINS

CITY           SKY/WX    TMP DP  RH WIND       PRES   REMARKS
ROSWELL        CLEAR     43  28  55 SE9       30.37R
CARLSBAD       CLEAR     42  26  53 S10       30.37R
HOBBS          PTCLDY    37  28  70 E7        30.40R WCI  32


$$


USA.gov is the U.S. government's official web portal to all federal, state and local government web resources and services.